Hourly Data Report for July 24, 2002

SHERBROOKE A
QUEBEC

45°26'00.000" N
71°41'00.000" W
241.40 m
7028124
71610
YSC

Download Data

Hourly Data (July 2002)
Hourly Data Report for July 24, 2002
TIME
LST
Temp Definition
°C
Dew Point Definition
°C
Rel Hum Definition
%
Precip. Amount Definition
mm

Wind Dir Definition
10's deg

Wind Spd Definition
km/h
Visibility Definition
km
Stn Press Definition
kPa
Hmdx Definition


Wind Chill Definition


Weather Definition


00:00 6.9 6.5 97   10 6 15.0 99.33      
01:00 7.4 6.8 96     0 15.0 99.39      
02:00 6.4 5.9 97   10 4 15.0 99.43      
03:00 5.7 5.1 96     0 15.0 99.47      
04:00 4.6 4.2 97     0 15.0 99.49      
05:00 6.1 6.1 100   9 6 1.1 99.55      
06:00 9.1 8.3 95   12 6 15.0 99.60      
07:00 11.3 9.4 88     0 24.1 99.65     Mainly Clear
08:00 14.3 10.5 78   7 4 24.1 99.63     Clear
09:00 16.4 11.3 72   16 4 24.1 99.66     Clear
10:00 17.8 9.8 59   12 4 24.1 99.66     Mainly Clear
11:00 19.5 11.5 60   27 6 24.1 99.63     Mainly Clear
12:00 20.1 10.3 53   20 7 24.1 99.57     Mainly Clear
13:00 20.7 9.1 47   12 7 24.1 99.55     Mainly Clear
14:00 19.8 11.3 58   32 7 24.1 99.52     Mainly Clear
15:00 22.1 10.5 48   11 4 24.1 99.50     Mainly Clear
16:00 22.0 8.7 43   28 4 24.1 99.49     Mainly Clear
17:00 21.5 10.0 48   33 4 15.0 99.48      
18:00 20.1 11.0 56   32 6 15.0 99.49      
19:00 17.4 10.9 66   31 6 15.0 99.51      
20:00 15.0 9.6 70   32 6 15.0 99.55      
21:00 10.8 9.3 90   10 4 15.0 99.55      
22:00 10.5 9.3 92   10 4 15.0 99.58      
23:00 9.7 8.9 95   10 4 15.0 99.60      

Notes on Data Quality.

Legend

  • E = Estimated
  • M = Missing
  • NA = Not Available*
  • [empty] = Indicates an unobserved value
Date modified: